Location: Darlington Observatory
(36.4817°N, 105.8156°W)
Time: 19:03:01
(UTC-07:00)

MOS 1 - Visible Passes

Search period start: 19 February 2018 00:00
Search period end: 01 March 2018 00:00
Orbit: 879 x 891 km, 99.3° (Epoch: 19 February)

Date Brightness Start Highest point End Pass type
(mag) Time Alt. Az. Time Alt. Az. Time Alt. Az.
19 Feb 4.5 18:35:33 10° S 18:41:12 78° WSW 18:46:53 10° NNW visible
20 Feb 4.4 18:33:47 10° SSE 18:39:26 81° WSW 18:45:08 10° NNW visible
21 Feb 4.4 18:32:01 10° SSE 18:37:40 84° WSW 18:43:23 10° NNW visible
22 Feb 4.4 18:30:16 10° SSE 18:35:55 87° WSW 18:41:38 10° NNW visible
23 Feb 4.3 18:28:30 10° SSE 18:34:09 90° WSW 18:39:52 10° NNW visible
24 Feb 4.3 18:26:45 10° SSE 18:32:24 87° ENE 18:38:07 10° NNW visible
24 Feb 7.6 20:13:49 10° W 20:14:22 10° W 20:14:55 10° W visible
25 Feb 4.3 18:25:00 10° SSE 18:30:38 84° ENE 18:36:21 10° NNW visible
25 Feb 7.5 20:11:19 10° WSW 20:12:34 11° W 20:13:51 10° WNW visible
26 Feb 4.3 18:23:14 10° SSE 18:28:53 81° ENE 18:34:35 10° NNW visible
26 Feb 7.4 20:09:06 10° WSW 20:10:48 11° W 20:12:30 10° WNW visible
27 Feb 4.3 18:21:29 10° SSE 18:27:07 78° ENE 18:32:49 10° N visible
27 Feb 7.4 20:06:59 10° WSW 20:09:01 12° W 20:11:03 10° WNW visible
28 Feb 4.3 18:19:44 10° SSE 18:25:22 75° ENE 18:31:03 10° N visible
28 Feb 7.4 20:04:55 10° WSW 20:07:13 12° W 20:09:33 10° WNW visible
